Cairns, Australia

7:24 PM AEST on April 27, 2017 (GMT +1000)
Cairns International

Weather History for YBCS - October, 2013

Change the Weather History Date:

Friday, October 18, 2013

  Actual Average Record
Temperature  
Mean Temperature 79 °F -  
Max Temperature 85 °F 86 °F 88 °F (2014)
Min Temperature 73 °F 71 °F 66 °F (1997)
Cooling Degree Days 14    
Growing Degree Days 29 (Base 50)    
Moisture  
Dew Point 69 °F    
Average Humidity 73    
Maximum Humidity 94    
Minimum Humidity 53    
Precipitation  
Precipitation 0.00 in 0.10 in - ()
Sea Level Pressure  
Sea Level Pressure 29.98 in    
Wind  
Wind Speed 7 mph ()    
Max Wind Speed 15 mph    
Max Gust Speed -    
Visibility 6.7 miles    
Events      
Averages and records for this station are not official NWS values.
T = Trace of Precipitation, MM = Missing Value Source: Averaged Metar Reports

Daily Weather History Graph

Daily Weather History Graph

Search for Another Location

Airport or City:

Trip Planner

Search our weather history database for the weather conditions in past years. The results will help you decide how hot, cold, wet, or windy it might be!

Date:

Astronomy

Oct. 18, 2013 Rise Set
Actual Time 5:47 AM AEST 6:17 PM AEST
Civil Twilight 5:25 AM AEST 6:39 PM AEST
Nautical Twilight 4:59 AM AEST 7:05 PM AEST
Astronomical Twilight 4:33 AM AEST 7:31 PM AEST
Moon 5:39 PM AEST (10/18) 4:55 AM AEST (10/18)
Length of Visible Light 13h 14m
Length of Day
12h 30m
Waxing Gibbous, 99% of the Moon is Illuminated
Oct 18
Waxing Gibbous
Oct 19
Full
Oct 27
Last Quarter
Nov 3
New
Nov 10
First Quarter

Hourly Weather History & Observations

Time (AEST) Temp. Heat Index Dew Point Humidity Pressure Visibility Wind Dir Wind Speed Gust Speed Precip Events Conditions
12:00 AM 76 °F - 69 °F 75% 30.00 in - South 5.8 mph - -   Overcast
12:00 AM 77.0 °F - 69.8 °F 78% 29.98 in 6.2 mi South 5.8 mph - N/A   Mostly Cloudy
12:30 AM 75.2 °F - 69.8 °F 83% 29.98 in 6.2 mi Calm Calm - N/A   Mostly Cloudy
1:00 AM 74 °F - 71 °F 86% 29.99 in - North 4.6 mph - -  
1:00 AM 75.2 °F - 71.6 °F 89% 29.98 in 6.2 mi North 4.6 mph - N/A   Mostly Cloudy
1:30 AM 73.4 °F - 71.6 °F 94% 29.98 in 6.2 mi Calm Calm - N/A   Mostly Cloudy
2:00 AM 75.2 °F - 69.8 °F 83% 29.95 in 6.2 mi SSE 3.5 mph - N/A   Mostly Cloudy
2:30 AM 75.2 °F - 71.6 °F 89% 29.95 in 6.2 mi SE 6.9 mph - N/A   Mostly Cloudy
3:00 AM 74 °F - 71 °F 88% 29.95 in - SE 9.2 mph - -   Overcast
3:00 AM 75.2 °F - 71.6 °F 89% 29.95 in 6.2 mi SE 9.2 mph - N/A   Mostly Cloudy
3:30 AM 75.2 °F - 69.8 °F 83% 29.95 in 6.2 mi SSE 5.8 mph - N/A   Mostly Cloudy
4:00 AM 74 °F - 70 °F 83% 29.96 in - SSE 10.4 mph - -  
4:00 AM 73.4 °F - 69.8 °F 88% 29.95 in 6.2 mi SSE 10.4 mph - N/A   Mostly Cloudy
4:30 AM 75.2 °F - 69.8 °F 83% 29.95 in 6.2 mi SSE 8.1 mph - N/A   Mostly Cloudy
5:00 AM 75.2 °F - 69.8 °F 83% 29.95 in 6.2 mi SSE 9.2 mph - N/A   Mostly Cloudy
5:30 AM 75.2 °F - 69.8 °F 83% 29.95 in 6.2 mi SSE 5.8 mph - N/A   Mostly Cloudy
6:00 AM 75 °F - 69 °F 77% 29.97 in - SSE 6.9 mph - -  
6:00 AM 75.2 °F - 69.8 °F 83% 29.98 in 6.2 mi SSE 6.9 mph - N/A   Mostly Cloudy
6:30 AM 75.2 °F - 69.8 °F 83% 29.98 in 6.2 mi South 8.1 mph - N/A   Mostly Cloudy
7:00 AM 75.2 °F - 69.8 °F 83% 30.01 in 6.2 mi SSE 8.1 mph - N/A   Mostly Cloudy
7:30 AM 77.0 °F - 69.8 °F 78% 30.01 in 6.2 mi SE 8.1 mph - N/A   Mostly Cloudy
8:00 AM 78.8 °F - 69.8 °F 74% 30.01 in 6.2 mi SE 8.1 mph - N/A   Mostly Cloudy
8:30 AM 78.8 °F - 69.8 °F 74% 30.01 in 6.2 mi SSE 9.2 mph - N/A   Mostly Cloudy
9:00 AM 79 °F - 69 °F 65% 30.02 in 16 mi South 6.9 mph - -   Partly Cloudy
9:00 AM 78.8 °F - 69.8 °F 74% 30.01 in 6.2 mi South 6.9 mph - N/A   Mostly Cloudy
9:30 AM 80.6 °F 83.9 °F 69.8 °F 70% 30.01 in 6.2 mi South 5.8 mph - N/A   Mostly Cloudy
10:00 AM 82 °F - 69 °F 57% 30.04 in - SSW 3.5 mph - -  
10:00 AM 82.4 °F 86.3 °F 69.8 °F 66% 30.01 in 6.2 mi SSW 3.5 mph - N/A   Mostly Cloudy
10:30 AM 82.4 °F 86.3 °F 69.8 °F 66% 30.01 in 6.2 mi SE 4.6 mph - N/A   Scattered Clouds
11:00 AM 82.4 °F 86.3 °F 69.8 °F 66% 30.01 in 6.2 mi NE 11.5 mph - N/A   Scattered Clouds
11:30 AM 84.2 °F 88.4 °F 69.8 °F 62% 29.98 in 6.2 mi NE 9.2 mph - N/A   Partly Cloudy
12:00 PM 84 °F - 70 °F 55% 29.99 in - ENE 12.7 mph - -  
12:00 PM 84.2 °F 88.4 °F 69.8 °F 62% 29.98 in 6.2 mi ENE 12.7 mph - N/A   Partly Cloudy
12:30 PM 82.4 °F 86.3 °F 69.8 °F 66% 29.98 in 6.2 mi NE 12.7 mph - N/A   Partly Cloudy
1:00 PM 85 °F - 70 °F 53% 29.97 in - ENE 15.0 mph - -  
1:00 PM 84.2 °F 88.4 °F 69.8 °F 62% 29.95 in 6.2 mi ENE 15.0 mph - N/A   Partly Cloudy
1:30 PM 84.2 °F 89.6 °F 71.6 °F 66% 29.95 in 6.2 mi NE 13.8 mph - N/A   Partly Cloudy
2:00 PM 84.2 °F 88.4 °F 69.8 °F 62% 29.92 in 6.2 mi ENE 15.0 mph - N/A   Scattered Clouds
2:30 PM 84.2 °F 88.4 °F 69.8 °F 62% 29.92 in 6.2 mi NE 15.0 mph - N/A   Partly Cloudy
3:00 PM 84 °F - 70 °F 54% 29.92 in 19 mi ENE 13.8 mph - -   Partly Cloudy
3:00 PM 84.2 °F 88.4 °F 69.8 °F 62% 29.92 in 6.2 mi ENE 13.8 mph - N/A   Scattered Clouds
3:30 PM 84.2 °F 87.3 °F 68.0 °F 58% 29.92 in 6.2 mi ENE 15.0 mph - N/A   Scattered Clouds
4:00 PM 83 °F - 69 °F 54% 29.94 in - East 13.8 mph - -  
4:00 PM 82.4 °F 86.3 °F 69.8 °F 66% 29.92 in 6.2 mi East 13.8 mph - N/A   Scattered Clouds
4:30 PM 82.4 °F 85.4 °F 68.0 °F 62% 29.92 in 6.2 mi SE 9.2 mph - N/A   Scattered Clouds
5:00 PM 82.4 °F 85.4 °F 68.0 °F 62% 29.95 in 6.2 mi ESE 13.8 mph - N/A   Partly Cloudy
5:30 PM 80.6 °F 83.2 °F 68.0 °F 65% 29.95 in 6.2 mi East 13.8 mph - N/A   Partly Cloudy
6:00 PM 80 °F - 68 °F 60% 29.98 in - ESE 10.4 mph - -  
6:00 PM 80.6 °F 83.2 °F 68.0 °F 65% 29.98 in 6.2 mi ESE 10.4 mph - N/A   Partly Cloudy
6:30 PM 78.8 °F - 68.0 °F 69% 29.98 in 6.2 mi ESE 10.4 mph - N/A   Partly Cloudy
7:00 PM 78 °F - 67 °F 60% 30.00 in - SE 10.4 mph - -  
7:00 PM 78.8 °F - 66.2 °F 65% 29.98 in 6.2 mi SE 10.4 mph - N/A   Partly Cloudy
7:30 PM 77.0 °F - 68.0 °F 74% 30.01 in 6.2 mi SSE 6.9 mph - N/A   Scattered Clouds
8:00 PM 77.0 °F - 68.0 °F 74% 30.01 in 6.2 mi South 5.8 mph - N/A   Scattered Clouds
8:30 PM 77.0 °F - 69.8 °F 78% 30.01 in 6.2 mi South 4.6 mph - N/A   Mostly Cloudy
9:00 PM 76 °F - 69 °F 73% 30.03 in - SSE 8.1 mph - -  
9:00 PM 77.0 °F - 69.8 °F 78% 30.04 in 6.2 mi SSE 8.1 mph - N/A   Mostly Cloudy
9:30 PM 75.2 °F - 69.8 °F 83% 30.04 in 6.2 mi SSE 6.9 mph - N/A   Mostly Cloudy
10:00 PM 76 °F - 69 °F 72% 30.05 in - South 6.9 mph - -  
10:00 PM 77.0 °F - 68.0 °F 74% 30.04 in 6.2 mi South 6.9 mph - N/A   Partly Cloudy
10:30 PM 75.2 °F - 68.0 °F 78% 30.04 in 6.2 mi South 5.8 mph - N/A   Partly Cloudy
11:00 PM 75.2 °F - 69.8 °F 83% 30.04 in 6.2 mi South 6.9 mph - N/A   Partly Cloudy
11:30 PM 75.2 °F - 68.0 °F 78% 30.04 in 6.2 mi SSE 6.9 mph - N/A   Partly Cloudy